When you browse on this site, cookies collect data to enhance your experience and personalize the content and advertising you see.
Visit our Privacy Policy to learn more. By continuing to use the site, you agree to this use of cookies and data.
  • în România
  • Lista ţărilor
  • Pe 7 zile
  • Temperatura apei
  • Hartă satelitară
  • Meteo pe hartă
  • Widget-uri
  • user-avatar
    Intrare

    Meteo pe oră la Folkern

    Astăzi, 20 Ianuarie, Duminică

    Timp Temperatura Precipitaţii Vânt Presiune Umiditate
    00:00 +7°C° 0 mm 6 m/s 757 mmHg 82%
    01:00 +6°C° 0.4 mm 7 m/s 757 mmHg 84%
    02:00 +6°C° 0.4 mm 7 m/s 758 mmHg 86%
    03:00 +6°C° 0.4 mm 8 m/s 758 mmHg 89%
    04:00 +6°C° 0.7 mm 9 m/s 758 mmHg 82%
    05:00 +6°C° 0.7 mm 11 m/s 759 mmHg 76%
    06:00 +5°C° 0 mm 12 m/s 760 mmHg 72%
    07:00 +5°C° 0 mm 12 m/s 760 mmHg 69%
    08:00 +5°C° 0 mm 12 m/s 761 mmHg 66%
    09:00 +4°C° 0 mm 11 m/s 762 mmHg 63%
    10:00 +4°C° 0 mm 11 m/s 763 mmHg 62%
    11:00 +5°C° 0 mm 10 m/s 763 mmHg 61%
    12:00 +5°C° 0 mm 10 m/s 764 mmHg 60%
    13:00 +5°C° 0 mm 10 m/s 764 mmHg 59%
    14:00 +5°C° 0 mm 9 m/s 764 mmHg 58%
    15:00 +5°C° 0 mm 8 m/s 765 mmHg 57%
    16:00 +5°C° 0.1 mm 8 m/s 765 mmHg 58%
    17:00 +5°C° 0.1 mm 7 m/s 765 mmHg 58%
    18:00 +6°C° 0.1 mm 7 m/s 766 mmHg 59%
    19:00 +6°C° 0.1 mm 7 m/s 766 mmHg 60%
    20:00 +6°C° 0.1 mm 7 m/s 766 mmHg 61%
    21:00 +6°C° 0.1 mm 7 m/s 766 mmHg 62%
    22:00 +6°C° 0.1 mm 8 m/s 765 mmHg 64%
    23:00 +6°C° 0.1 mm 8 m/s 765 mmHg 67%

    Mâine, 21 Ianuarie, Luni

    Timp Temperatura Precipitaţii Vânt Presiune Umiditate
    00:00 +6°C° 0.1 mm 9 m/s 765 mmHg 69%
    01:00 +6°C° 0.1 mm 10 m/s 764 mmHg 70%
    02:00 +6°C° 0.1 mm 11 m/s 763 mmHg 72%
    03:00 +5°C° 0.1 mm 12 m/s 763 mmHg 73%
    04:00 +5°C° 0.2 mm 13 m/s 762 mmHg 73%
    05:00 +5°C° 0.2 mm 14 m/s 761 mmHg 73%
    06:00 +5°C° 0.2 mm 15 m/s 760 mmHg 73%
    07:00 +5°C° 0.2 mm 16 m/s 759 mmHg 74%
    08:00 +5°C° 0.2 mm 17 m/s 757 mmHg 75%
    09:00 +5°C° 0.2 mm 17 m/s 756 mmHg 75%
    10:00 +5°C° 0.7 mm 18 m/s 754 mmHg 77%
    11:00 +5°C° 0.7 mm 19 m/s 753 mmHg 78%
    12:00 +5°C° 0.7 mm 19 m/s 751 mmHg 79%
    13:00 +3°C° 2.1 mm 18 m/s 750 mmHg 77%
    14:00 +4°C° 2.1 mm 16 m/s 749 mmHg 76%
    15:00 +3°C° 2.1 mm 14 m/s 748 mmHg 74%
    16:00 +3°C° 0.4 mm 13 m/s 748 mmHg 71%
    17:00 +3°C° 0.4 mm 13 m/s 748 mmHg 68%
    18:00 +3°C° 0.4 mm 12 m/s 747 mmHg 64%
    19:00 +3°C° 0.3 mm 12 m/s 747 mmHg 62%
    20:00 +3°C° 0.3 mm 11 m/s 747 mmHg 61%
    21:00 +3°C° 0.3 mm 11 m/s 748 mmHg 59%
    22:00 +3°C° 0.2 mm 10 m/s 747 mmHg 60%
    23:00 +3°C° 0.2 mm 10 m/s 747 mmHg 60%

    Poimâine, 22 Ianuarie, Marţi

    Timp Temperatura Precipitaţii Vânt Presiune Umiditate
    00:00 +2°C° 0.2 mm 10 m/s 747 mmHg 60%
    01:00 +2°C° 0.2 mm 9 m/s 747 mmHg 60%
    02:00 +2°C° 0.2 mm 9 m/s 747 mmHg 60%
    03:00 +2°C° 0.2 mm 9 m/s 747 mmHg 59%
    04:00 +2°C° 0.1 mm 9 m/s 747 mmHg 59%
    05:00 +2°C° 0.1 mm 9 m/s 747 mmHg 59%
    06:00 +1°C° 0.1 mm 10 m/s 747 mmHg 60%
    07:00 +2°C° 0.1 mm 9 m/s 747 mmHg 58%
    08:00 +2°C° 0.1 mm 9 m/s 747 mmHg 57%
    09:00 +2°C° 0.1 mm 8 m/s 747 mmHg 56%
    10:00 +2°C° 0 mm 8 m/s 747 mmHg 56%
    11:00 +2°C° 0 mm 9 m/s 747 mmHg 56%
    12:00 +2°C° 0 mm 9 m/s 747 mmHg 56%
    13:00 +2°C° 0.2 mm 10 m/s 747 mmHg 56%
    14:00 +2°C° 0.2 mm 10 m/s 747 mmHg 56%
    15:00 +2°C° 0.2 mm 11 m/s 747 mmHg 56%
    16:00 +2°C° 0.1 mm 11 m/s 748 mmHg 57%
    17:00 +2°C° 0.1 mm 11 m/s 748 mmHg 57%
    18:00 +2°C° 0.1 mm 11 m/s 748 mmHg 58%
    19:00 +3°C° 0.1 mm 10 m/s 749 mmHg 59%
    20:00 +3°C° 0.1 mm 10 m/s 749 mmHg 59%
    21:00 +3°C° 0.1 mm 10 m/s 749 mmHg 60%
    22:00 +3°C° 0.1 mm 10 m/s 750 mmHg 60%
    23:00 +3°C° 0.1 mm 9 m/s 750 mmHg 60%

    23 Ianuarie, Miercuri

    Timp Temperatura Precipitaţii Vânt Presiune Umiditate
    00:00 +3°C° 0.1 mm 9 m/s 750 mmHg 60%
    01:00 +3°C° 0.1 mm 9 m/s 751 mmHg 60%
    02:00 +3°C° 0.1 mm 10 m/s 751 mmHg 61%
    03:00 +3°C° 0.1 mm 10 m/s 751 mmHg 61%
    04:00 +3°C° 0.1 mm 9 m/s 751 mmHg 61%
    05:00 +4°C° 0.1 mm 8 m/s 752 mmHg 60%
    06:00 +4°C° 0.1 mm 8 m/s 752 mmHg 59%
    07:00 +4°C° 0.1 mm 8 m/s 752 mmHg 60%
    08:00 +4°C° 0.1 mm 7 m/s 752 mmHg 60%
    09:00 +4°C° 0.1 mm 7 m/s 753 mmHg 60%
    10:00 +4°C° 0.1 mm 7 m/s 753 mmHg 62%
    11:00 +5°C° 0.1 mm 7 m/s 753 mmHg 63%
    12:00 +5°C° 0.1 mm 8 m/s 754 mmHg 65%
    13:00 +5°C° 0.1 mm 7 m/s 753 mmHg 67%
    14:00 +5°C° 0.1 mm 7 m/s 753 mmHg 69%
    15:00 +5°C° 0.1 mm 6 m/s 753 mmHg 71%
    16:00 +6°C° 0.1 mm 5 m/s 753 mmHg 73%
    17:00 +6°C° 0.1 mm 5 m/s 753 mmHg 76%
    18:00 +6°C° 0.1 mm 4 m/s 753 mmHg 79%
    19:00 +6°C° 0.2 mm 5 m/s 753 mmHg 82%
    20:00 +7°C° 0.2 mm 5 m/s 753 mmHg 84%
    21:00 +7°C° 0.2 mm 6 m/s 753 mmHg 87%
    22:00 +7°C° 0.1 mm 6 m/s 753 mmHg 89%
    23:00 +8°C° 0.1 mm 5 m/s 753 mmHg 91%

    24 Ianuarie, Joi

    Timp Temperatura Precipitaţii Vânt Presiune Umiditate
    00:00 +8°C° 0.1 mm 5 m/s 753 mmHg 93%
    01:00 +8°C° 0.1 mm 6 m/s 753 mmHg 92%
    02:00 +8°C° 0.1 mm 7 m/s 753 mmHg 92%
    03:00 +7°C° 0.1 mm 8 m/s 753 mmHg 91%
    04:00 +8°C° 0.5 mm 7 m/s 753 mmHg 91%
    05:00 +8°C° 0.5 mm 7 m/s 753 mmHg 90%
    06:00 +8°C° 0.5 mm 7 m/s 753 mmHg 90%
    07:00 +8°C° 0.6 mm 7 m/s 753 mmHg 91%
    08:00 +8°C° 0.6 mm 6 m/s 753 mmHg 92%
    09:00 +8°C° 0.6 mm 6 m/s 753 mmHg 93%
    10:00 +7°C° 0.2 mm 8 m/s 753 mmHg 93%
    11:00 +8°C° 0.2 mm 9 m/s 753 mmHg 92%
    12:00 +8°C° 0.2 mm 11 m/s 753 mmHg 92%
    13:00 +8°C° 0.4 mm 11 m/s 753 mmHg 91%
    14:00 +8°C° 0.4 mm 11 m/s 753 mmHg 91%
    15:00 +8°C° 0.4 mm 11 m/s 754 mmHg 91%
    16:00 +8°C° 0.1 mm 11 m/s 754 mmHg 91%
    17:00 +8°C° 0.1 mm 11 m/s 754 mmHg 91%
    18:00 +8°C° 0.1 mm 10 m/s 754 mmHg 91%
    19:00 +8°C° 0.1 mm 10 m/s 755 mmHg 92%
    20:00 +8°C° 0.1 mm 10 m/s 755 mmHg 92%
    21:00 +8°C° 0.1 mm 9 m/s 755 mmHg 92%
    22:00 +8°C° 0 mm 10 m/s 756 mmHg 92%
    23:00 +8°C° 0 mm 10 m/s 756 mmHg 91%

    25 Ianuarie, Vineri

    Timp Temperatura Precipitaţii Vânt Presiune Umiditate
    00:00 +8°C° 0 mm 10 m/s 756 mmHg 91%
    01:00 +8°C° 0 mm 11 m/s 755 mmHg 91%
    02:00 +8°C° 0 mm 11 m/s 755 mmHg 91%
    03:00 +8°C° 0 mm 11 m/s 754 mmHg 92%
    04:00 +8°C° 0.2 mm 12 m/s 754 mmHg 91%
    05:00 +8°C° 0.2 mm 13 m/s 753 mmHg 91%
    06:00 +8°C° 0.2 mm 14 m/s 752 mmHg 90%
    07:00 +8°C° 0.2 mm 14 m/s 752 mmHg 86%
    08:00 +8°C° 0.2 mm 14 m/s 753 mmHg 81%
    09:00 +6°C° 0.2 mm 14 m/s 753 mmHg 77%
    10:00 +6°C° 0 mm 14 m/s 753 mmHg 73%
    11:00 +7°C° 0 mm 13 m/s 753 mmHg 70%
    12:00 +5°C° 0 mm 13 m/s 754 mmHg 67%
    13:00 +5°C° 0 mm 13 m/s 754 mmHg 67%
    14:00 +5°C° 0 mm 13 m/s 754 mmHg 67%
    15:00 +5°C° 0 mm 13 m/s 753 mmHg 67%
    16:00 +5°C° 0.1 mm 13 m/s 753 mmHg 67%
    17:00 +5°C° 0.1 mm 13 m/s 753 mmHg 67%
    18:00 +5°C° 0.1 mm 13 m/s 753 mmHg 67%
    19:00 +4°C° 0.1 mm 13 m/s 753 mmHg 66%
    20:00 +4°C° 0.1 mm 13 m/s 752 mmHg 65%
    21:00 +4°C° 0.1 mm 13 m/s 752 mmHg 64%
    22:00 +4°C° 0.1 mm 13 m/s 752 mmHg 64%
    23:00 +4°C° 0.1 mm 13 m/s 751 mmHg 64%
    Arată mai mult